Temperature
22 22 22 21 20 20 20 20 20 19 19 19 19 18 18 18 18 18 19 19 19 19 18 18 18 18 18 18 18 18 18 18 18 18 18 18 18 18 19 19 19 19 19
22 22 21 21 21 20 20 20 20 20 19 19 19 18 18 18 18 18 18 18 18 18 18 18 18 18 17 17 18 18 18 18 18 17 17 17 17 18 18 18 18 18 19
22 22 21 21 21 21 21 21 20 20 20 19 19 18 18 17 17 17 17 18 17 17 17 17 17 17 17 17 17 17 17 17 17 17 16 16 16 17 17 17 17 17 18
22 22 22 22 22 22 21 21 21 20 20 19 18 18 17 17 16 16 16 16 17 17 17 16 16 16 16 16 16 16 16 16 16 16 16 16 16 16 16 16 17 17 17
22 22 23 23 22 22 22 21 21 20 20 19 18 17 17 16 16 16 16 16 16 16 16 16 16 16 16 16 16 16 16 16 16 16 16 16 15 15 15 15 16 16 16
23 23 23 23 22 22 21 21 20 20 19 18 17 17 16 16 15 15 15 16 16 16 16 16 16 16 15 15 16 15 15 15 15 15 15 15 15 15 15 15 15 15 16
23 23 23 23 22 22 21 20 20 19 19 18 17 16 16 15 15 15 15 15 15 15 15 15 15 15 15 15 15 15 15 15 15 15 14 14 14 14 14 14 14 15 15
24 23 23 23 22 21 21 20 20 19 18 17 16 16 15 15 14 14 14 14 14 14 14 14 14 14 15 15 15 14 14 14 14 14 14 14 14 14 14 14 14 14 14
23 23 23 22 22 21 21 20 20 19 18 17 16 15 15 14 14 14 14 13 13 13 14 14 14 14 14 14 14 14 14 14 14 14 13 13 13 13 14 14 14 14 14
23 23 23 22 22 21 21 20 20 19 17 16 15 15 14 14 13 13 13 13 12 13 13 13 13 13 13 14 14 14 14 14 14 13 13 13 13 13 13 13 14 14 14
22 22 22 22 22 21 21 20 20 18 17 16 15 14 14 13 13 13 12 12 12 12 12 12 13 13 13 13 13 14 14 13 13 13 13 13 13 13 13 13 14 14 14
21 21 21 21 21 21 21 20 19 18 17 16 15 14 14 13 13 12 12 12 12 12 12 12 12 12 13 13 13 13 13 13 13 13 12 12 12 13 13 13 13 13 13
19 19 20 20 20 20 20 20 19 18 17 16 15 14 14 13 13 12 12 12 12 11 11 12 12 12 12 13 13 13 13 13 12 12 12 12 12 13 13 13 13 13 13
16 17 17 18 18 19 19 19 19 18 17 16 15 14 14 13 13 13 12 12 12 12 11 11 12 12 12 12 12 12 12 12 12 12 12 12 12 12 13 13 13 13 13
14 15 15 16 17 17 18 19 19 18 18 16 15 14 14 13 13 13 12 12 12 11 11 11 11 11 11 11 11 11 11 11 11 12 12 12 12 12 12 12 12 13 12
13 13 14 15 15 15 16 17 18 18 18 16 15 14 14 13 13 13 12 12 11 11 11 11 11 11 11 11 11 11 11 11 11 11 11 12 12 12 12 12 12 12 12
11 12 12 13 13 13 14 15 16 17 17 17 15 15 14 13 13 13 12 12 11 11 11 11 11 11 11 11 11 11 11 11 11 11 11 11 11 11 11 11 12 12 12
11 11 11 11 12 12 13 13 15 15 16 16 16 15 14 13 13 12 12 12 11 11 11 11 11 11 11 11 11 11 11 11 11 11 11 11 11 11 11 11 11 11 11
10 10 10 10 10 11 11 11 12 13 14 15 15 15 14 14 13 12 12 12 11 11 11 11 11 11 11 11 11 11 11 11 11 11 11 11 11 11 11 11 11 11 11
10 10 10 10 10 10 10 10 10 11 12 13 14 14 14 14 13 13 12 12 11 11 11 11 11 11 11 11 11 11 11 11 11 11 11 11 11 11 11 11 11 11 11
10 10 10 10 9 9 9 9 9 9 10 11 12 12 13 13 13 13 12 12 11 11 11 11 11 11 11 11 11 11 11 11 11 11 11 10 10 10 10 10 10 10 10
10 10 10 9 9 9 9 9 8 8 9 10 10 11 12 13 13 13 12 12 12 11 11 11 11 11 11 11 11 11 11 11 11 11 10 10 10 10 10 10 9 9 9
10 10 10 9 9 9 9 9 8 8 8 9 9 10 11 12 12 12 12 12 12 11 11 11 11 11 11 11 11 11 11 11 11 10 10 10 10 9 9 9 9 9 9
10 10 10 9 9 9 9 8 8 8 8 8 8 9 10 11 11 12 12 12 12 11 11 11 11 11 11 11 11 11 11 11 10 10 10 10 9 9 9 9 9 8 8
9 9 9 9 9 9 9 8 8 8 7 7 8 8 9 10 11 12 12 12 12 12 12 12 12 11 11 11 11 11 11 11 10 10 10 10 9 9 9 9 9 8 8
9 9 9 9 9 9 8 8 8 8 7 7 8 8 8 9 10 11 12 12 12 12 12 12 12 12 12 12 11 11 11 11 10 10 10 10 10 9 9 9 9 8 8
Wind_Speed
6 6 6 6 5 5 4 3 3 3 3 2 2 2 3 4 5 6 7 9 10 10 7 8 8 8 9 11 10 8 8 8 6 5 6 7 8 10 10 9 9 11 11
5 5 5 4 3 3 3 4 4 4 4 4 4 4 4 5 5 6 6 8 9 9 8 7 7 7 8 9 9 8 6 6 5 5 4 4 5 6 9 7 7 8 8
10 8 7 5 5 5 7 7 8 8 7 7 4 2 2 3 4 6 7 8 7 8 7 8 8 7 7 8 9 8 9 8 6 6 6 5 6 4 4 3 1 2 2
8 8 8 8 9 9 9 9 9 8 7 6 4 4 4 5 6 6 7 9 9 9 8 9 8 8 7 8 8 8 7 8 7 5 6 6 5 4 4 3 2 2 1
10 11 11 12 11 10 9 8 7 5 4 3 3 3 4 5 5 7 9 10 10 10 10 9 8 8 8 8 9 7 7 7 7 5 4 4 4 5 5 4 3 2 2
11 11 12 10 9 7 6 5 5 3 2 2 1 1 3 5 7 9 9 10 9 9 10 10 9 8 7 8 8 7 7 6 6 5 4 4 3 3 4 4 3 2 3
10 10 10 9 8 6 5 4 5 4 2 3 2 2 2 4 6 8 9 11 10 9 10 9 8 7 7 6 6 6 6 6 5 5 4 4 4 3 3 3 2 1 2
9 9 9 8 7 7 7 6 6 5 4 3 2 1 2 3 5 7 8 9 9 9 9 8 7 6 5 5 5 5 6 5 6 6 5 3 3 3 3 3 3 1 1
8 6 6 8 8 8 8 8 8 6 5 5 3 1 1 3 5 7 7 7 7 7 6 4 3 4 4 4 4 5 6 5 5 5 4 3 2 2 2 2 3 3 2
5 6 7 8 8 8 7 8 8 8 7 6 5 3 1 2 4 5 7 7 6 5 5 5 4 3 3 3 4 4 5 5 4 4 4 3 1 1 1 1 2 3 3
2 4 6 8 8 7 8 8 8 7 6 6 5 4 2 1 2 4 5 6 5 5 6 6 5 5 4 2 1 1 2 4 3 3 5 5 4 3 2 2 2 3 3
6 5 5 7 7 8 8 9 8 8 8 7 6 6 4 3 2 3 4 5 5 6 6 6 6 6 5 3 2 3 4 6 7 7 7 6 5 5 4 4 5 4 4
13 11 8 5 7 8 9 9 9 9 8 8 8 7 6 5 4 4 4 4 5 6 6 6 6 5 4 4 4 6 9 9 9 8 8 7 8 7 6 7 6 6 7
14 16 15 11 8 7 8 9 9 9 8 8 8 8 8 8 7 5 4 4 4 4 5 5 5 5 5 6 7 10 10 10 9 8 7 7 8 8 8 8 8 9 9
16 16 15 15 13 12 10 9 10 9 9 9 9 9 9 8 7 6 5 3 3 3 2 3 5 5 4 5 9 9 10 11 11 10 9 9 11 11 9 8 8 8 7
15 15 15 16 16 16 16 13 12 10 9 10 10 9 8 8 8 7 6 4 3 2 1 3 5 5 4 7 11 10 9 10 11 10 9 9 10 12 14 15 12 9 7
15 16 15 14 15 15 16 17 15 11 9 10 9 9 9 9 8 8 7 6 4 3 3 4 5 5 5 10 14 13 9 9 8 9 8 9 9 10 9 11 12 12 11
17 16 14 14 13 13 14 17 17 11 9 9 9 10 10 10 9 8 8 7 5 5 4 5 5 5 6 13 16 16 11 9 8 8 9 9 8 8 9 9 9 9 8
12 11 11 11 11 13 13 14 17 14 10 8 9 11 12 11 10 10 9 7 6 5 5 6 7 7 7 12 15 14 9 9 8 7 7 9 9 12 13 11 10 10 8
12 12 11 10 11 12 12 12 13 14 14 12 9 10 12 13 12 11 9 7 6 6 7 7 7 8 7 12 16 14 9 8 7 6 7 10 11 12 13 10 10 10 7
15 14 13 11 10 10 10 11 11 11 13 14 11 9 11 13 12 11 8 8 8 8 8 8 7 7 8 11 15 15 8 9 8 6 4 4 12 13 13 11 8 8 7
15 14 12 12 10 8 7 10 12 11 11 13 12 9 10 12 11 12 11 10 11 10 9 7 6 5 6 7 12 16 13 12 9 7 5 5 11 12 11 9 11 13 10
16 13 13 13 11 9 7 8 11 12 11 12 12 10 10 11 11 13 14 11 11 10 9 9 8 6 5 6 10 14 17 16 8 7 10 10 10 10 8 9 11 9 7
16 14 13 13 12 11 10 9 9 9 11 11 10 10 9 10 11 12 12 13 13 12 10 10 9 7 6 5 5 5 9 13 9 7 8 9 7 6 5 6 6 5 5
15 13 12 13 13 11 11 11 11 9 9 10 9 9 9 10 12 12 13 15 14 15 13 11 11 11 9 10 14 11 9 9 9 8 4 3 2 3 3 3 3 4 4
15 14 13 12 12 11 10 11 11 10 8 8 8 8 8 8 9 12 11 15 14 18 19 17 14 12 13 17 18 17 17 17 17 9 5 4 4 4 4 5 3 3 4
Wind_Direction
137 128 125 124 121 126 139 163 177 183 170 175 205 240 260 266 273 269 270 276 277 273 259 257 252 242 239 240 237 234 238 241 229 239 265 268 254 250 251 250 251 252 247
146 155 154 144 144 166 186 197 206 210 198 193 201 210 229 254 262 273 282 280 280 277 277 265 260 251 245 246 240 231 237 244 220 213 240 281 291 257 248 249 258 265 262
175 184 185 189 182 192 199 199 204 206 207 206 202 228 267 287 289 291 288 283 280 278 272 266 259 253 243 245 243 234 233 243 241 213 210 223 243 283 283 243 258 321 332
184 188 191 198 202 203 196 190 192 197 207 203 202 225 247 266 270 276 280 286 283 279 271 263 254 248 241 241 244 238 231 231 242 231 218 218 204 224 286 298 274 304 302
188 194 200 205 209 203 193 189 186 197 204 190 197 229 263 273 286 292 291 291 289 280 273 263 253 245 238 235 237 236 229 224 226 218 208 215 219 212 218 266 297 326 280
201 206 212 212 213 202 186 178 172 185 172 132 109 75 310 309 312 309 303 298 293 287 276 266 253 243 237 236 235 229 219 214 206 200 193 188 190 202 198 224 259 302 298
215 218 221 219 212 197 191 181 173 178 150 113 85 50 346 323 309 306 304 301 297 290 280 270 254 241 233 230 222 215 216 208 204 200 200 198 203 199 185 188 220 249 301
229 229 224 206 195 190 189 183 181 181 170 151 138 71 349 321 306 303 302 298 294 288 282 272 254 241 232 227 222 224 224 214 209 203 195 194 206 204 188 175 169 156 12
220 209 190 181 182 187 191 189 186 189 188 179 171 167 308 312 311 312 308 305 305 306 307 293 273 263 249 235 226 232 229 209 201 193 187 186 200 209 198 173 165 154 141
180 172 179 184 188 191 193 191 191 197 197 189 183 172 191 290 308 317 321 319 322 337 356 4 355 327 292 263 238 235 225 195 186 177 172 167 145 98 172 169 165 149 136
178 222 215 203 197 193 193 198 205 206 201 199 191 177 190 234 297 318 324 325 338 352 3 3 2 350 330 309 270 221 173 146 124 116 123 112 108 103 108 116 111 104 108
355 317 262 221 208 205 205 208 211 210 210 203 193 190 192 203 254 287 305 320 338 347 354 359 358 350 350 355 29 85 97 108 110 109 110 112 106 88 86 88 83 84 92
14 4 344 292 244 225 217 216 216 216 212 197 193 194 197 203 227 252 275 305 327 338 345 357 0 0 16 44 67 91 98 102 104 105 108 110 103 88 80 80 80 83 88
22 15 6 347 319 281 244 227 223 216 203 193 193 198 204 205 213 229 251 281 307 321 333 3 19 22 34 65 88 96 99 97 92 90 90 88 91 91 86 82 83 91 89
17 12 6 358 347 331 300 262 237 222 202 192 196 205 206 203 203 211 227 254 286 304 347 33 51 44 46 92 107 105 104 98 90 79 72 72 80 81 82 87 85 88 90
6 2 360 358 353 343 328 299 262 234 205 196 201 203 198 197 197 197 201 211 247 285 40 85 78 59 63 107 111 110 103 100 95 86 74 68 65 75 75 77 78 84 94
355 352 349 346 343 340 340 327 292 254 214 203 200 194 193 196 197 188 183 191 206 210 162 130 106 84 88 113 111 108 107 100 96 91 83 79 70 73 75 65 60 55 60
339 338 333 331 332 334 337 340 332 293 240 210 199 194 190 195 192 181 182 188 189 191 177 156 134 107 107 120 115 109 103 96 91 93 96 90 71 70 81 71 56 42 31
310 309 310 311 316 325 331 335 345 334 295 245 210 198 191 190 187 186 185 183 180 187 181 162 146 121 111 123 123 116 109 101 89 85 88 94 85 78 81 76 66 49 27
308 307 307 312 316 319 323 329 337 344 330 302 255 214 193 189 190 190 182 173 173 182 172 163 157 142 133 131 133 127 124 115 106 85 77 87 96 87 83 80 75 63 36
292 294 295 297 298 306 319 322 324 327 328 321 295 242 205 194 190 184 176 170 170 170 172 166 163 155 152 143 145 145 140 140 132 122 111 102 105 97 89 85 80 86 83
282 283 283 281 279 284 302 312 312 310 319 325 315 273 225 205 195 181 180 175 172 173 175 168 164 166 166 159 158 161 159 153 144 148 151 144 123 108 97 84 87 85 78
277 277 275 278 279 275 275 288 298 305 312 319 322 302 248 216 196 186 184 179 178 180 181 176 176 177 178 184 177 169 169 164 150 159 162 156 135 106 85 77 88 86 83
275 274 271 273 276 271 264 261 271 286 296 303 310 311 278 230 207 193 187 186 187 187 185 183 181 175 170 174 169 156 156 157 144 143 156 151 130 99 88 76 77 90 110
279 274 269 270 271 270 266 265 264 263 274 286 299 306 289 246 214 199 193 191 193 191 187 188 183 179 184 192 176 160 157 158 154 137 116 119 124 113 93 91 95 92 95
285 278 272 268 266 261 260 265 266 256 253 273 290 299 296 266 225 203 197 202 193 189 186 183 181 190 186 173 176 172 166 161 153 138 148 162 170 168 156 150 143 120 113
Height
1509 1511 1512 1513 1516 1518 1519 1520 1520 1520 1520 1519 1518 1517 1515 1513 1512 1511 1509 1508 1506 1505 1504 1503 1502 1501 1501 1501 1501 1501 1501 1501 1502 1502 1500 1499 1499 1498 1498 1498 1497 1497 1497
1509 1510 1512 1513 1515 1516 1517 1517 1517 1517 1516 1515 1514 1512 1510 1507 1506 1504 1502 1500 1499 1497 1496 1495 1494 1494 1494 1493 1494 1494 1494 1494 1495 1495 1494 1492 1492 1490 1490 1490 1490 1489 1489
1508 1510 1511 1512 1513 1513 1514 1513 1513 1512 1511 1510 1509 1507 1504 1502 1500 1498 1495 1494 1492 1490 1488 1487 1487 1486 1486 1485 1485 1486 1487 1487 1487 1488 1489 1487 1484 1483 1483 1483 1482 1481 1481
1508 1509 1509 1510 1510 1509 1509 1509 1508 1508 1506 1505 1503 1501 1499 1496 1494 1491 1489 1487 1485 1483 1481 1480 1479 1478 1478 1477 1478 1478 1478 1479 1479 1480 1480 1481 1480 1481 1478 1478 1477 1476 1476
1506 1506 1506 1506 1505 1505 1505 1505 1504 1503 1502 1500 1498 1496 1494 1491 1488 1486 1483 1480 1478 1476 1474 1472 1471 1470 1470 1470 1470 1470 1470 1471 1472 1472 1473 1474 1474 1474 1474 1473 1472 1472 1473
1503 1503 1502 1502 1502 1503 1503 1502 1502 1500 1499 1497 1494 1492 1489 1486 1483 1480 1476 1473 1470 1467 1465 1464 1463 1463 1463 1463 1463 1463 1463 1464 1465 1466 1467 1468 1469 1469 1469 1469 1468 1468 1469
1500 1499 1500 1500 1500 1501 1501 1500 1499 1497 1495 1493 1491 1489 1486 1483 1479 1475 1471 1467 1463 1460 1458 1457 1456 1456 1456 1457 1457 1457 1457 1458 1459 1460 1462 1463 1464 1465 1465 1465 1465 1466 1468
1497 1497 1497 1497 1498 1498 1498 1498 1496 1494 1492 1490 1488 1485 1482 1479 1476 1471 1467 1462 1458 1454 1452 1451 1451 1451 1451 1451 1451 1452 1452 1454 1455 1456 1457 1458 1460 1461 1462 1462 1463 1464 1466
1494 1494 1494 1494 1495 1495 1495 1494 1493 1490 1488 1486 1484 1481 1479 1476 1472 1468 1463 1459 1454 1451 1449 1448 1447 1447 1447 1447 1447 1447 1448 1450 1451 1452 1453 1455 1456 1457 1459 1460 1462 1464 1465
1492 1492 1492 1492 1493 1492 1492 1491 1490 1487 1485 1483 1480 1478 1476 1473 1470 1466 1461 1457 1453 1449 1447 1446 1445 1445 1445 1445 1444 1444 1445 1446 1448 1449 1451 1452 1454 1455 1457 1459 1461 1462 1464
1493 1493 1492 1491 1490 1489 1489 1488 1486 1484 1482 1480 1477 1475 1473 1470 1467 1464 1460 1456 1453 1450 1448 1446 1445 1444 1443 1443 1443 1443 1443 1444 1446 1447 1449 1451 1453 1455 1457 1459 1461 1462 1464
1495 1493 1491 1489 1487 1486 1485 1484 1483 1480 1478 1476 1474 1472 1470 1468 1465 1463 1460 1457 1454 1452 1449 1447 1446 1444 1443 1442 1442 1442 1442 1443 1445 1446 1449 1451 1454 1456 1458 1460 1461 1463 1464
1493 1491 1489 1487 1485 1483 1482 1481 1479 1476 1474 1472 1470 1469 1467 1465 1463 1462 1460 1457 1455 1453 1450 1448 1446 1445 1443 1443 1442 1443 1443 1444 1446 1448 1451 1453 1455 1457 1459 1460 1462 1463 1465
1492 1490 1488 1486 1484 1482 1480 1477 1475 1472 1469 1468 1466 1465 1464 1462 1461 1460 1459 1457 1456 1454 1452 1449 1447 1446 1444 1444 1444 1445 1446 1447 1449 1451 1454 1456 1457 1459 1460 1462 1463 1465 1466
1493 1490 1488 1485 1483 1480 1477 1474 1471 1468 1465 1463 1462 1461 1460 1459 1458 1457 1457 1456 1456 1454 1453 1451 1449 1447 1446 1446 1447 1448 1449 1450 1453 1455 1457 1458 1460 1461 1463 1464 1466 1467 1468
1495 1491 1488 1484 1481 1478 1473 1469 1466 1463 1460 1457 1457 1457 1456 1456 1455 1454 1455 1455 1455 1455 1454 1452 1451 1450 1450 1449 1450 1451 1453 1455 1456 1458 1460 1462 1463 1464 1465 1467 1468 1469 1469
1495 1491 1488 1483 1478 1474 1469 1464 1460 1458 1455 1452 1451 1451 1452 1452 1451 1451 1452 1453 1454 1454 1454 1454 1454 1453 1453 1453 1454 1456 1457 1459 1460 1462 1463 1464 1466 1467 1468 1469 1470 1470 1471
1493 1489 1486 1481 1476 1470 1464 1458 1453 1450 1449 1447 1446 1446 1446 1447 1447 1447 1448 1450 1452 1453 1454 1455 1455 1455 1456 1457 1458 1459 1461 1462 1464 1465 1466 1467 1468 1469 1469 1470 1470 1470 1471
1490 1486 1482 1477 1472 1467 1460 1454 1449 1444 1443 1442 1440 1440 1441 1442 1443 1443 1444 1447 1450 1452 1453 1454 1455 1456 1458 1459 1460 1461 1463 1464 1465 1467 1468 1469 1469 1469 1470 1470 1470 1471 1471
1483 1478 1474 1470 1466 1461 1456 1450 1445 1440 1437 1435 1434 1434 1434 1435 1437 1438 1440 1443 1446 1450 1452 1453 1455 1457 1458 1460 1461 1462 1464 1465 1466 1468 1469 1470 1469 1470 1470 1470 1471 1471 1472
1477 1473 1468 1464 1460 1455 1451 1446 1441 1436 1432 1428 1426 1426 1428 1429 1431 1433 1435 1438 1443 1447 1450 1452 1453 1456 1458 1459 1461 1463 1464 1465 1467 1468 1469 1470 1471 1471 1471 1472 1472 1473 1474
1469 1465 1460 1456 1453 1449 1444 1440 1435 1431 1426 1421 1418 1417 1419 1422 1424 1427 1430 1433 1438 1443 1446 1449 1451 1454 1456 1458 1460 1462 1464 1465 1466 1468 1469 1470 1471 1472 1473 1473 1474 1474 1475
1460 1456 1452 1447 1444 1442 1437 1433 1428 1424 1420 1416 1411 1409 1410 1413 1416 1419 1423 1426 1431 1437 1441 1444 1447 1450 1453 1456 1458 1460 1462 1464 1466 1468 1469 1470 1472 1473 1474 1475 1475 1475 1475
1451 1447 1442 1438 1435 1433 1430 1425 1421 1417 1414 1410 1406 1402 1401 1403 1407 1411 1415 1419 1423 1429 1434 1438 1442 1445 1449 1452 1455 1457 1460 1462 1465 1467 1469 1470 1472 1474 1475 1475 1476 1476 1475
1440 1436 1432 1428 1425 1423 1420 1417 1414 1409 1406 1403 1399 1395 1392 1393 1397 1401 1406 1410 1415 1420 1426 1431 1436 1440 1444 1447 1451 1454 1457 1460 1462 1465 1467 1469 1471 1473 1474 1475 1476 1476 1476
1431 1426 1422 1419 1416 1413 1411 1408 1405 1402 1398 1395 1391 1387 1384 1383 1387 1392 1397 1403 1408 1414 1420 1426 1431 1436 1440 1445 1448 1451 1455 1458 1460 1463 1465 1467 1469 1471 1473 1474 1475 1476 1476